ROMMA est une association bénévole à but non lucratif. Votre soutien est indispensable : ADHERER à ROMMA ou FAIRE un DON

Voiron - (38, Isère)

Voironnais (300 m)   Longitude: 05° 35' E   Latitude: 45° 23' N Station partenaire n°109
 

Détail journalier du     <<     >>

Température Precipitation Humidité Pression Vent Dir Rafale Dir. rafale Ensol.
Heure (°C) (mm) (%) (hPa) (km/h) (km/h) (min)
01:00 19.406510151OSO6NNO0
02:00 19.006810152OSO5OSO0
03:00 18.107210152ONO8NO0
04:00 17.607310142ESE8NNO0
05:00 17.807310142N8N0
06:00 17.707910142SSO6NO0
07:00 16.64.88910163NO15NO0
08:00 16.808410166ESE21SSE0
09:00 16.40.29310166S19S0
10:00 17.708310164SSE15SSE0
11:00 19.207510169SE24SO0
12:00 20.607210168SSE15SE30
13:00 22.706510165SSO15S60
14:00 24.505410156SSO15SSE60
15:00 26.505210146S15SSE60
16:00 26.805310149NO23N60
17:00 25.7060101511NNO24N0
18:00 22.80.67610157NNO18NNO0
19:00 22.807910153NNO19N0
20:00 22.907510154N10E0
21:00 21.808010162E10ESE0
22:00 20.808210162NO8NNO0
23:00 20.20.28310162NNO10NNO0
minuit 19.808610162N5NNO0

Graphique du 20-06-2019

 

Serveur OMMA